DW3544 Weather Reports


time (UTC)temp
C
wind
direction
speed
KPH
gust
KPH
rain 1hr
cm
rain 24hr
cm
rain mn
cm
humidity
%
barometer
mb
20260508002003 15 255 3.2 11.3 0.00 0.66 0.00 59 1009.5
20260508000005 16 230 3.2 6.4 0.00 0.86 0.00 64 1008.9
20260507235502 16 223 3.2 9.7 0.00 0.91 0.00 66 1008.9
20260507235004 16 229 3.2 9.7 0.00 0.91 0.00 62 1008.9
20260507234503 16 227 6.4 17.7 0.00 0.91 0.00 67 1008.8
20260507234004 16 220 6.4 17.7 0.00 0.91 0.00 68 1008.8
20260507233503 16 222 9.7 17.7 0.00 0.91 0.00 67 1008.6
20260507232503 16 226 9.7 16.1 0.00 0.91 0.00 67 1008.4
20260507232004 16 225 9.7 17.7 0.00 0.91 0.00 69 1008.3
20260507231004 16 230 6.4 12.9 0.00 0.91 0.00 68 1008.2
20260507230503 16 226 9.7 14.5 0.00 0.91 0.00 68 1008.1
20260507230004 16 227 11.3 16.1 0.00 0.94 0.00 68 1008.0
20260507225503 16 224 9.7 16.1 0.00 0.94 0.00 68 1007.9
20260507225003 16 219 6.4 16.1 0.00 0.94 0.00 68 1007.8
20260507224503 16 217 4.8 14.5 0.00 0.94 0.00 66 1007.8
20260507224004 16 215 3.2 9.7 0.00 0.94 0.00 66 1007.7
20260507223503 16 218 4.8 11.3 0.00 0.94 0.00 66 1007.7
20260507221503 17 222 6.4 14.5 0.00 0.94 0.00 62 1007.4
20260507221004 17 215 4.8 11.3 0.00 0.94 0.00 63 1007.4
20260507220503 17 210 3.2 9.7 0.00 0.94 0.00 62 1007.4
20260507220005 17 203 3.2 9.7 0.00 0.94 0.00 62 1007.4
20260507215503 17 185 3.2 11.3 0.00 0.94 0.00 62 1007.3
20260507215003 17 211 4.8 16.1 0.00 0.94 0.00 61 1007.3
20260507214503 17 223 4.8 16.1 0.00 0.94 0.00 60 1007.3
20260507214004 18 247 6.4 14.5 0.00 0.94 0.00 58 1007.3
20260507213503 18 243 9.7 14.5 0.00 0.94 0.00 57 1007.3
20260507213004 18 235 6.4 14.5 0.00 0.94 0.00 55 1007.2
20260507212503 18 232 6.4 14.5 0.00 0.94 0.00 53 1007.3
20260507212004 19 189 4.8 14.5 0.00 0.94 0.00 54 1007.2
20260507211503 19 167 4.8 14.5 0.00 0.94 0.00 53 1007.2
20260507210503 19 148 3.2 17.7 0.00 0.94 0.00 53 1007.3
20260507210005 19 139 1.6 4.8 0.00 0.94 0.00 56 1007.2
20260507205503 18 205 3.2 11.3 0.00 0.94 0.00 51 1007.2
20260507205004 18 181 3.2 12.9 0.00 0.94 0.00 52 1007.2
20260507204503 18 168 4.8 12.9 0.00 0.94 0.00 55 1007.3
20260507204003 18 228 6.4 14.5 0.00 0.94 0.00 55 1007.3
20260507203503 18 239 9.7 16.1 0.00 0.94 0.00 54 1007.4
20260507202503 18 271 6.4 16.1 0.00 0.94 0.00 55 1007.3
20260507202005 18 276 6.4 14.5 0.00 0.94 0.00 53 1007.2
20260507201502 18 273 6.4 16.1 0.00 0.94 0.00 52 1007.3
20260507201003 18 249 4.8 16.1 0.00 0.94 0.00 55 1007.6
20260507200503 18 213 3.2 11.3 0.00 0.94 0.00 55 1007.7
20260507195503 17 241 3.2 6.4 0.00 0.94 0.00 53 1007.8
20260507195004 17 217 3.2 9.7 0.00 0.94 0.00 55 1007.7
20260507194503 17 177 3.2 9.7 0.00 0.94 0.00 56 1007.8
20260507194004 17 156 1.6 6.4 0.00 0.94 0.00 54 1007.8
20260507193502 16 145 3.2 11.3 0.00 0.94 0.00 56 1007.9
20260507193003 16 124 3.2 11.3 0.00 0.94 0.00 55 1008.0
20260507192503 16 113 3.2 11.3 0.00 0.94 0.00 60 1008.1
20260507192004 16 114 4.8 11.3 0.00 0.94 0.00 54 1008.2
20260507191503 16 110 3.2 11.3 0.00 0.94 0.00 58 1008.2
20260507191004 16 109 4.8 12.9 0.00 0.94 0.00 59 1008.3
20260507190503 15 98 6.4 12.9 0.00 0.94 0.00 59 1008.2
20260507190005 15 84 9.7 16.1 0.00 0.94 0.00 57 1008.3
20260507185503 15 90 9.7 16.1 0.00 0.94 0.00 59 1008.4
20260507185004 15 93 9.7 16.1 0.00 0.94 0.00 57 1008.4
20260507183503 17 83 4.8 11.3 0.00 0.94 0.00 57 1008.5
20260507183004 17 126 4.8 11.3 0.00 0.94 0.00 54 1008.5
20260507182503 16 132 3.2 11.3 0.00 0.94 0.00 55 1008.5
20260507182004 16 137 3.2 11.3 0.00 0.94 0.00 57 1008.6
20260507181503 16 133 3.2 11.3 0.00 0.94 0.00 55 1008.6
20260507181004 16 95 4.8 12.9 0.00 0.94 0.00 58 1008.8
20260507180503 16 74 4.8 12.9 0.00 0.94 0.00 56 1008.9
20260507175503 16 65 4.8 9.7 0.00 0.94 0.00 58 1009.0
20260507174503 16 87 3.2 6.4 0.00 0.94 0.00 58 1009.3
20260507174003 16 63 3.2 6.4 0.00 0.94 0.00 61 1009.3
20260507172503 15 58 3.2 9.7 0.00 0.94 0.00 57 1009.5
20260507172003 14 66 4.8 12.9 0.00 0.94 0.00 62 1009.6
20260507171503 14 77 6.4 12.9 0.00 0.94 0.00 61 1009.7
20260507171004 14 68 6.4 14.5 0.00 0.94 0.00 63 1009.9
20260507170005 14 72 6.4 16.1 0.00 0.94 0.00 59 1010.0
20260507165503 14 57 6.4 16.1 0.00 0.94 0.00 61 1010.0
20260507165004 14 69 6.4 16.1 0.00 0.94 0.00 65 1010.2
20260507164503 14 90 9.7 16.1 0.00 0.94 0.00 61 1009.9
20260507164004 14 90 6.4 16.1 0.00 0.94 0.00 61 1010.1
20260507163503 14 92 6.4 16.1 0.00 0.94 0.00 64 1010.3
20260507163004 14 104 9.7 17.7 0.00 0.94 0.00 66 1010.3
20260507162503 13 94 11.3 19.3 0.00 0.94 0.00 64 1010.5
20260507162003 13 95 11.3 19.3 0.00 0.94 0.00 69 1010.6
20260507161503 13 100 9.7 17.7 0.00 0.94 0.00 67 1010.7
20260507161004 12 80 9.7 17.7 0.00 0.94 0.00 70 1010.9
20260507160503 12 82 6.4 14.5 0.00 0.94 0.00 68 1011.0
20260507155503 12 90 6.4 14.5 0.00 0.94 0.00 67 1011.1
20260507155003 12 85 4.8 12.9 0.00 0.94 0.00 67 1011.2
20260507154503 12 86 4.8 12.9 0.00 0.94 0.00 67 1011.2
20260507154004 12 90 6.4 12.9 0.00 0.94 0.00 67 1011.1
20260507153504 11 90 4.8 12.9 0.00 0.94 0.00 70 1011.0
20260507153004 11 66 4.8 12.9 0.00 0.94 0.00 68 1011.1
20260507152503 11 59 6.4 14.5 0.00 0.94 0.00 68 1011.1
20260507152004 11 71 6.4 14.5 0.00 0.94 0.00 71 1011.2
20260507151503 11 75 6.4 14.5 0.00 0.94 0.00 71 1011.2
20260507150503 11 73 6.4 16.1 0.00 0.94 0.00 72 1011.5
20260507150005 11 71 9.7 16.1 0.00 0.94 0.00 73 1011.5
20260507145503 11 79 11.3 16.1 0.00 0.94 0.00 71 1011.5
20260507145004 11 78 9.7 16.1 0.00 0.94 0.00 73 1011.4
20260507144503 11 68 6.4 16.1 0.00 0.94 0.00 73 1011.6
20260507143502 11 71 9.7 19.3 0.00 0.94 0.00 74 1011.8
20260507143004 11 68 9.7 19.3 0.00 0.94 0.00 73 1011.9
20260507142503 11 68 9.7 17.7 0.00 0.94 0.00 74 1011.9
20260507142004 11 69 9.7 17.7 0.00 0.94 0.00 76 1012.1
20260507141503 11 65 9.7 17.7 0.00 0.94 0.00 74 1012.0
20260507141007 11 63 9.7 16.1 0.00 0.94 0.00 77 1012.1
20260507140503 10 63 9.7 17.7 0.00 0.94 0.00 77 1012.0
20260507140004 10 66 9.7 17.7 0.00 0.94 0.00 78 1012.1
20260507135504 10 69 6.4 14.5 0.00 0.94 0.00 79 1012.2
20260507135004 10 65 4.8 12.9 0.00 0.94 0.00 80 1012.1
20260507134504 10 60 6.4 14.5 0.00 0.94 0.00 80 1012.1
20260507134003 10 59 6.4 16.1 0.00 0.94 0.00 79 1012.2
20260507133503 10 59 6.4 17.7 0.00 0.94 0.00 80 1012.3
20260507133005 10 59 6.4 17.7 0.00 0.94 0.00 81 1012.1
20260507132502 10 60 4.8 16.1 0.00 0.94 0.00 82 1012.2
20260507132004 10 60 6.4 14.5 0.00 0.94 0.00 82 1012.3
20260507131503 10 61 6.4 16.1 0.00 0.94 0.00 81 1012.3
20260507131004 11 57 6.4 16.1 0.00 0.94 0.00 82 1012.4
20260507130503 11 58 6.4 12.9 0.00 0.94 0.00 82 1012.4
20260507130005 11 65 4.8 12.9 0.00 0.97 0.00 82 1012.4
20260507125503 11 69 3.2 11.3 0.00 0.97 0.00 83 1012.4
20260507125004 11 68 4.8 11.3 0.00 0.97 0.00 82 1012.3
20260507124503 11 65 4.8 11.3 0.00 0.99 0.00 82 1012.2
20260507124004 11 63 3.2 9.7 0.00 1.02 0.00 84 1012.1
20260507123504 11 64 3.2 11.3 0.00 1.02 0.00 85 1012.1
20260507123004 11 63 4.8 12.9 0.00 1.04 0.00 84 1012.1
20260507122503 11 61 6.4 17.7 0.00 1.07 0.00 84 1012.1
20260507121003 11 78 3.2 6.4 0.00 1.12 0.00 87 1011.5
20260507120004 11 75 3.2 6.4 0.00 1.14 0.00 87 1011.7
20260507115503 11 77 1.6 6.4 0.00 1.14 0.00 88 1011.9
20260507114503 11 84 3.2 9.7 0.00 1.14 0.00 89 1011.9
20260507114004 11 90 1.6 9.7 0.00 1.14 0.00 89 1011.8
20260507113503 11 96 1.6 3.2 0.00 1.14 0.00 89 1011.7
20260507113005 11 95 1.6 4.8 0.00 1.14 0.00 90 1011.9
20260507112005 11 95 1.6 4.8 0.00 1.14 0.00 90 1011.7
20260507111503 11 96 1.6 3.2 0.00 1.14 0.00 90 1011.8
20260507111004 11 96 1.6 3.2 0.00 1.14 0.00 90 1011.5
20260507110503 11 96 1.6 3.2 0.00 1.17 0.00 90 1011.4
20260507110004 11 96 0.0 1.6 0.00 1.17 0.00 90 1011.2
20260507105503 11 96 0.0 1.6 0.00 1.17 0.00 90 1011.5
20260507104504 11 95 1.6 4.8 0.00 1.19 0.00 89 1011.0
20260507104004 11 95 1.6 4.8 0.00 1.19 0.00 88 1011.0
20260507103004 11 97 0.0 1.6 0.00 1.19 0.00 88 1011.3
20260507102503 11 97 0.0 1.6 0.00 1.19 0.00 88 1011.3
20260507102006 11 0 0.0 0.0 0.00 1.19 0.00 87 1011.3
20260507101004 11 96 1.6 4.8 0.00 1.19 0.00 87 1011.2
20260507100503 11 97 3.2 6.4 0.00 1.19 0.00 86 1010.9
20260507100004 11 97 3.2 6.4 0.00 1.19 0.00 86 1011.0
20260507095503 11 97 3.2 6.4 0.00 1.19 0.00 86 1011.0
20260507095004 11 97 3.2 4.8 0.00 1.19 0.00 86 1010.9
20260507094004 11 96 3.2 4.8 0.00 1.19 0.00 86 1010.8
20260507093503 11 96 3.2 4.8 0.00 1.19 0.00 84 1011.0
20260507093004 11 96 1.6 4.8 0.00 1.19 0.00 84 1010.9
20260507092504 11 95 1.6 4.8 0.00 1.19 0.00 85 1010.8
20260507092005 11 96 3.2 4.8 0.00 1.19 0.00 85 1010.8
20260507091503 11 96 3.2 4.8 0.00 1.19 0.00 85 1010.9
20260507091004 11 95 3.2 6.4 0.00 1.19 0.00 85 1010.9
20260507090504 11 94 3.2 6.4 0.00 1.19 0.00 85 1010.8
20260507090005 11 94 3.2 6.4 0.00 1.19 0.00 86 1010.8
20260507085503 11 93 3.2 4.8 0.00 1.19 0.00 86 1010.6
20260507085004 11 92 3.2 11.3 0.00 1.19 0.00 87 1010.7
20260507084504 11 90 4.8 11.3 0.00 1.19 0.00 87 1010.6
20260507084004 11 89 4.8 11.3 0.00 1.19 0.00 87 1010.5
20260507083004 11 89 4.8 6.4 0.00 1.19 0.00 87 1010.6
20260507082503 11 89 4.8 6.4 0.00 1.19 0.00 87 1010.7
20260507082004 11 89 3.2 6.4 0.00 1.19 0.00 87 1010.8
20260507081504 11 89 3.2 6.4 0.00 1.19 0.00 87 1010.8
20260507080504 11 86 4.8 9.7 0.00 1.19 0.00 86 1011.1
20260507080005 11 86 4.8 9.7 0.00 1.19 0.00 86 1010.9
20260507075503 11 89 4.8 11.3 0.00 1.19 0.00 87 1011.0
20260507074503 11 83 6.4 12.9 0.00 1.19 0.00 87 1010.9
20260507074004 11 75 6.4 12.9 0.00 1.19 0.00 86 1011.0
20260507073503 11 69 4.8 12.9 0.00 1.19 0.00 87 1010.9
20260507073004 11 69 6.4 14.5 0.00 1.19 0.00 86 1010.7
20260507072504 11 67 9.7 17.7 0.00 1.19 0.00 87 1010.4
20260507072004 11 68 9.7 17.7 0.00 1.19 0.00 87 1010.2
20260507071004 11 66 6.4 14.5 0.00 1.19 0.00 88 1010.5
20260507070504 11 65 6.4 14.5 0.00 1.19 0.00 88 1010.4
20260507070009 11 61 6.4 17.7 0.00 1.19 0.00 88 1010.3
20260507065503 11 60 11.3 24.1 0.00 1.19 0.00 88 1010.4
20260507064004 12 54 6.4 20.9 0.00 1.19 0.00 88 1010.7
20260507063503 12 56 9.7 20.9 0.00 1.19 0.00 87 1010.6
20260507063004 12 54 6.4 17.7 0.00 1.19 0.00 87 1010.6
20260507062503 12 58 6.4 17.7 0.00 1.19 0.00 87 1010.5
20260507062004 12 64 4.8 16.1 0.00 1.19 0.00 88 1010.5
20260507061504 12 65 6.4 14.5 0.00 1.19 0.00 88 1010.4
20260507061005 12 68 6.4 14.5 0.00 1.19 0.00 87 1010.5
20260507060504 12 69 6.4 14.5 0.00 1.19 0.00 87 1010.6
20260507060005 12 68 6.4 14.5 0.00 1.19 0.00 88 1010.7
20260507055502 12 73 6.4 14.5 0.00 1.19 0.00 88 1010.7
20260507055003 12 77 6.4 14.5 0.00 1.19 0.00 88 1010.8
20260507054503 12 74 9.7 16.1 0.00 1.19 0.00 88 1010.7
20260507054003 12 71 6.4 16.1 0.00 1.19 0.00 88 1010.9
20260507053502 12 72 9.7 19.3 0.00 1.19 0.00 88 1010.8
20260507053003 12 75 9.7 19.3 0.00 1.19 0.00 88 1010.5
20260507052502 12 69 9.7 19.3 0.00 1.19 0.00 88 1010.5
20260507052003 12 61 9.7 24.1 0.00 1.19 0.00 88 1010.5
20260507051503 12 60 6.4 24.1 0.00 1.19 0.00 88 1010.4
20260507051002 13 60 4.8 14.5 0.00 1.19 0.00 90 1010.5
20260507050503 13 49 3.2 11.3 0.00 1.19 0.00 90 1010.4
20260507050003 13 17 3.2 6.4 0.00 1.19 0.00 91 1010.1
20260507045501 13 307 1.6 4.8 0.00 1.19 0.00 91 1009.9
20260507045003 13 299 1.6 4.8 0.05 1.19 0.00 90 1010.0
20260507044502 13 312 1.6 4.8 0.05 1.19 0.00 90 1009.9
20260507044002 13 340 3.2 9.7 0.08 1.19 0.00 90 1009.8
20260507043503 13 55 1.6 9.7 0.08 1.19 0.00 90 1009.7
20260507043002 13 80 3.2 9.7 0.08 1.19 0.00 90 1009.3
20260507042502 13 85 6.4 16.1 0.08 1.19 0.00 89 1009.0
20260507042003 13 84 9.7 16.1 0.08 1.19 0.00 89 1009.2
20260507041502 13 84 11.3 19.3 0.08 1.19 0.00 88 1009.5
20260507041002 13 88 11.3 19.3 0.13 1.19 0.00 89 1009.6
20260507040503 13 86 6.4 14.5 0.15 1.19 0.00 89 1009.9
20260507040006 13 84 4.8 14.5 0.20 1.19 0.00 90 1010.3
20260507035502 13 77 4.8 14.5 0.36 1.19 1.19 90 1010.1
20260507035003 14 40 3.2 9.7 0.46 1.14 1.14 90 1010.6
20260507034502 14 50 4.8 9.7 0.43 1.12 1.12 90 1010.9
20260507034002 14 68 4.8 12.9 0.46 1.12 1.12 90 1010.3
20260507033502 14 77 6.4 14.5 0.46 1.12 1.12 90 1010.1
20260507033003 14 89 6.4 17.7 0.46 1.12 1.12 90 1010.0
20260507032502 14 92 9.7 17.7 0.46 1.12 1.12 89 1010.3
20260507032002 14 84 6.4 17.7 0.46 1.12 1.12 90 1010.1
20260507031502 14 72 6.4 16.1 0.46 1.12 1.12 90 1010.3
20260507031003 15 72 6.4 17.7 0.43 1.07 1.07 89 1010.1
20260507030502 15 69 4.8 17.7 0.46 1.04 1.04 88 1010.0
20260507030003 15 68 3.2 11.3 0.41 0.99 0.99 88 1010.1
20260507025502 15 58 3.2 11.3 0.23 0.81 0.81 87 1010.1
20260507024503 16 45 0.0 4.8 0.10 0.69 0.69 89 1010.0
20260507024003 16 49 1.6 9.7 0.08 0.66 0.66 89 1009.9
20260507023002 16 63 4.8 14.5 0.08 0.66 0.66 88 1009.4
20260507022502 16 73 3.2 12.9 0.08 0.66 0.66 90 1009.1
20260507021502 16 77 4.8 11.3 0.10 0.66 0.66 89 1009.1
20260507021003 16 63 4.8 16.1 0.08 0.64 0.64 89 1008.9
20260507020503 16 49 3.2 16.1 0.03 0.58 0.58 89 1009.0
20260507015503 16 325 1.6 9.7 0.05 0.58 0.58 90 1009.5
20260507015003 16 108 0.0 1.6 0.05 0.58 0.58 90 1009.3
20260507014502 16 108 0.0 1.6 0.05 0.58 0.58 89 1009.1
20260507014002 16 0 0.0 0.0 0.05 0.58 0.58 89 1008.9
20260507013503 17 108 1.6 4.8 0.05 0.58 0.58 89 1008.9
20260507013003 17 109 3.2 6.4 0.05 0.58 0.58 88 1008.5
20260507012502 17 106 4.8 12.9 0.05 0.58 0.58 88 1008.6
20260507012003 17 99 4.8 12.9 0.05 0.58 0.58 88 1008.4
20260507011502 17 82 3.2 11.3 0.05 0.56 0.56 89 1008.7
20260507011003 17 64 1.6 6.4 0.08 0.56 0.56 88 1009.0
20260507010502 17 46 1.6 4.8 0.18 0.56 0.56 88 1009.2
20260507010003 17 28 1.6 4.8 0.25 0.56 0.56 87 1009.2
20260507005502 17 20 1.6 4.8 0.25 0.53 0.53 85 1009.3
20260507004004 17 327 1.6 9.7 0.25 0.53 0.53 82 1009.4
20260507003502 17 311 3.2 14.5 0.25 0.53 0.53 81 1009.1
20260507003004 17 294 4.8 14.5 0.25 0.53 0.53 82 1009.1